Location: Hurstbourne Priors
(51.2000°N, 1.3667°W)
Time: 08:55:20
(UTC+00:00)

Cosmos 841 Rocket - Pass Details

Date: 09 April 2020
Orbit: 747 x 772 km, 74.0° (Epoch: 24 May)

Event Time Altitude Azimuth Distance (km) Brightness Sun altitude
Rises 22:01:15 0° 331° (NNW) 3,260 8.1 -24.9°
Reaches altitude 10° 22:03:44 10° 325° (NW) 2,327 7.1 -25.1°
Maximum altitude 22:08:43 45° 255° (WSW) 1,053 4.2 -25.5°
Enters shadow 22:09:36 41° 227° (SW) 1,113 4.2 -25.6°
